Location: Krakow
(50.0830°N, 19.9170°E)
Time: 16:52:46
(UTC+02:00)

Courier 1B - Pass Details

Date: 23 March 2026
Orbit: 962 x 1209 km, 28.3° (Epoch: 19 April)

Event Time Altitude Azimuth Distance (km) Brightness Sun altitude
Rises 09:16:41 0° 239° (WSW) 4,043 10.6 31.5°
Reaches altitude 10° 09:22:52 10° 202° (SSW) 3,014 10.5 32.2°
Maximum altitude 09:23:59 10° 193° (SSW) 2,972 10.6 32.4°
Drops below altitude 10° 09:25:06 10° 184° (S) 2,987 10.7 32.5°
Sets 09:31:02 0° 147° (SSE) 3,863 11.7 33.1°
